Location: Cheching
(60.0667°N, 164.2167°W)
Time: 22:07:22
(UTC+00:00)

NOAA 15 - Pass Details

Date: 31 January 2021
Orbit: 798 x 812 km, 98.7° (Epoch: 07 March)

Event Time Altitude Azimuth Distance (km) Brightness Sun altitude
Rises 16:54:10 0° 24° (NNE) 3,349 8.1 -16.8°
Reaches altitude 10° 16:57:54 10° 51° (NE) 2,413 7.7 -16.4°
Maximum altitude 17:00:26 13° 79° (E) 2,179 7.9 -16.1°
Drops below altitude 10° 17:02:57 10° 108° (ESE) 2,406 8.4 -15.7°
Sets 17:06:39 0° 135° (SE) 3,331 8.7 -15.3°
